Regional Weather Roundup
Issued by NWS

Home | Current Version | Previous Version | Text Only | Print | Product List | Glossary On
Versions: 1 2 3 4 5 6 7 8 9 10 11 12 13 14 15 16 17 18 19 20 21 22 23 24 25 26 27 28 29 30 31 32 33 34 35 36 37 38 39 40 41 42 43 44 45 46 47 48 49 50
000
ASUS43 KDMX 250307
RWRIA

WEATHER ROUNDUP FOR IOWA
NATIONAL WEATHER SERVICE DES MOINES IA
1000 PM CDT SUN MAY 24 2015

NOTE: "FAIR" INDICATES FEW OR NO CLOUDS BELOW 12,000 FEET WITH NO
SIGNIFICANT WEATHER AND/OR OBSTRUCTIONS TO VISIBILITY.

* - THESE STATIONS ARE NOT NWS STATIONS...THUS NOT UNDER NWS
QUALITY CONTROL.  THEY ALSO DO NOT REPORT WEATHER SUCH
AS PRECIPITATION OR FOG.

IAZ001>003-012>014-020>022-031>034-043>046-250400-
   NORTHWEST IOWA

CITY           SKY/WX    TMP DP  RH WIND       PRES   REMARKS
CARROLL *      CLOUDY    63  63 100 SW5       29.78R FOG
CHEROKEE *     CLOUDY    61  61 100 CALM      29.77R
DENISON *      MOCLDY    61  61 100 CALM      29.76R FOG
LE MARS *      CLOUDY    63  61  94 CALM      29.78R
ORANGE CITY *  CLOUDY    61  59  94 CALM      29.77R
SHELDON *      CLOUDY    61 N/A N/A CALM      29.75S
SIOUX CITY     CLOUDY    62  60  93 CALM      29.77R FOG
SPENCER        CLOUDY    62  61  96 CALM      29.76S
STORM LAKE *   CLOUDY    61  61 100 SW7       29.78R
$$

IAZ055>058-069>071-079>083-090>094-250400-
   SOUTHWEST IOWA

CITY           SKY/WX    TMP DP  RH WIND       PRES   REMARKS
ATLANTIC *     CLOUDY    66  64  94 S9        29.78S
AUDUBON *      CLOUDY    64  61  88 CALM      29.79S
CLARINDA *     CLOUDY    64  63  94 CALM      29.82R
COUNCIL BLFS * CLOUDY    66  66 100 SW7       29.79R
CRESTON *      CLOUDY    63  63 100 S8        29.81R
HARLAN  *      CLOUDY    64  64 100 CALM      29.82R
LAMONI         CLOUDY    66  62  87 S5        29.81S
RED OAK *      CLOUDY    64  64 100 S6        29.79S
SHENANDOAH *   CLOUDY    64  63  94 S7        29.79S
$$

IAZ047>049-059>061-072>074-084-250400-
   CENTRAL IOWA

CITY           SKY/WX    TMP DP  RH WIND       PRES   REMARKS
AMES           LGT RAIN  64  63  96 S6        29.78R
ANKENY *       CLOUDY    64  64 100 SW6G13    29.79R FOG
CHARITON *     CLOUDY    64  63  94 S9        29.81S
DES MOINES     CLOUDY    68  63  84 SW8       29.79R
GRINNELL*      CLOUDY    64  63  94 S8        29.81R
KNOXVILLE *    CLOUDY    64  61  88 S7        29.79S
MARSHALLTOWN   CLOUDY    65  62  90 S9        29.78R
PELLA *        MOCLDY    64  64 100 S6        29.82R
PERRY *        CLOUDY    64  63  94 SW5       29.78R
$$

IAZ004>006-015-016-023>025-035-036-250400-
   NORTH CENTRAL IOWA

CITY           SKY/WX    TMP DP  RH WIND       PRES   REMARKS
ALGONA *       CLOUDY    63  63 100 S6        29.77S FOG
CLARION *      CLOUDY    64  64 100 SW5       29.77R
ESTHERVILLE    FOG       60  60 100 CALM      29.75S VSB 3/4
FORT DODGE *   CLOUDY    63  61  94 CALM      29.78R
MASON CITY     CLOUDY    64  63  96 SE8       29.79S FOG
FOREST CITY *  CLOUDY    61  61 100 SE5       29.77S FOG
IOWA FALLS *   CLOUDY    64  63  94 SE6       29.78S
$$

IAZ007>011-017>019-026>030-037>042-050>054-066-250400-
   NORTHEAST IOWA

CITY           SKY/WX    TMP DP  RH WIND       PRES   REMARKS
CEDAR RAPIDS   CLOUDY    67  67 100 SE7       29.80R
CHARLES CITY * CLOUDY    63  63 100 E8        29.79F FOG
CLINTON *      CLOUDY    70  64  83 SE12      29.87S
DECORAH *      CLOUDY    61  61 100 E9        29.80F FOG
DUBUQUE        CLOUDY    65  63  93 SE10      29.84S FOG
MONTICELLO *   CLOUDY    66  66 100 SE9       29.81S FOG
OELWEIN *      CLOUDY    64  64 100 SE9       29.80S FOG
WATERLOO       CLOUDY    65  64  97 CALM      29.78S
$$

IAZ064-065-067-068-078-250400-
   EAST CENTRAL IOWA

CITY           SKY/WX    TMP DP  RH WIND       PRES   REMARKS
DAVENPORT      CLOUDY    69  65  86 S12       29.85R
IOWA CITY      CLOUDY    67  66  97 SE7       29.82R
MT. PLEASANT * CLOUDY    66  66 100 S9        29.83S
MUSCATINE *    MOCLDY    68  66  94 S8        29.83R
QUAD CITIES    MOCLDY    70  66  87 S9        29.85R
$$

IAZ062-063-075>077-085>089-095>099-250400-
   SOUTHEAST IOWA

CITY           SKY/WX    TMP DP  RH WIND       PRES   REMARKS
BURLINGTON     CLOUDY    69  66  90 S13       29.84S
FAIRFIELD *    DRIZZLE   68  66  94 S7        29.83R
FORT MADISON * CLOUDY    66  66 100 S6        29.85S
KEOKUK *       CLOUDY    68  66  94 S6        29.84S
OSKALOOSA *    MOCLDY    64  62  91 SW5       29.81F
CENTERVILLE *    N/A     64  64 100 S6        29.84R
OTTUMWA        CLOUDY    65  63  93 S8        29.81R
WASHINGTON *   CLOUDY    68  66  94 S13G18    29.83R
$$

ABBREVIATIONS USED IN REMARKS
   TC - TEMPERATURES IN CELSIUS
  WCI - WIND CHILL INDEX
   HX - HEAT INDEX
  VSB - VISIBILITY
$$



USA.gov is the U.S. government's official web portal to all federal, state and local government web resources and services.